This is the latest recevied weather packets stored in our database for station/object WX4HP-13. If no packets are shown the sender has not sent any weather packets the latest 10 day(s).
| Time | Temp. | Humidity | Pressure | Rain* | Wind** | Luminosity | Snow |
|---|---|---|---|---|---|---|---|
| 1778082296 | 22.22° C | 79% | 1012.2 hPa | 0 mm | - | - | - |
| 1778081997 | 21.67° C | 80% | 1012.3 hPa | 0 mm | - | - | - |
| 1778081696 | 21.67° C | 82% | 1012.3 hPa | 0 mm | - | - | - |
| 1778081396 | 21.11° C | 83% | 1012.5 hPa | 0 mm | - | - | - |
| 1778081095 | 20.56° C | 84% | 1012.6 hPa | 0 mm | - | - | - |
| 1778080796 | 20.56° C | 84% | 1012.5 hPa | 0 mm | - | - | - |
| 1778080496 | 20.56° C | 85% | 1012.5 hPa | 0 mm | - | - | - |
| 1778080196 | 20° C | 86% | 1012.6 hPa | 0 mm | - | - | - |
| 1778079896 | 20° C | 87% | 1012.6 hPa | 0 mm | - | - | - |
| 1778079596 | 20° C | 87% | 1012.8 hPa | 0 mm | - | - | - |
| 1778079296 | 19.44° C | 88% | 1012.8 hPa | 0 mm | - | - | - |
| 1778078997 | 19.44° C | 89% | 1012.9 hPa | 0 mm | - | - | - |
| 1778078696 | 19.44° C | 91% | 1012.9 hPa | 0 mm | - | - | - |
| 1778078396 | 18.89° C | 92% | 1012.8 hPa | 0 mm | - | - | - |
| 1778078096 | 18.89° C | 93% | 1012.9 hPa | 0 mm | - | - | - |
| 1778077796 | 18.33° C | 94% | 1013 hPa | 0 mm | - | - | - |
| 1778077496 | 18.33° C | 94% | 1013.1 hPa | 0 mm | - | - | - |
| 1778077287 | 18.33° C | 94% | 1013.1 hPa | 0 mm | - | - | - |
| 1778077196 | 18.33° C | 94% | 1013.1 hPa | 0 mm | - | - | - |
| 1778076897 | 18.33° C | 94% | 1013.2 hPa | 0 mm | - | - | - |
| 1778076596 | 18.33° C | 94% | 1013.5 hPa | 0 mm | - | - | - |
| 1778075996 | 17.78° C | 94% | 1013.5 hPa | 0 mm | - | - | - |
| 1778075696 | 17.78° C | 94% | 1013.8 hPa | 0 mm | - | - | - |
| 1778075395 | 17.78° C | 93% | 1013.5 hPa | 0 mm | - | - | - |
| 1778074797 | 18.33° C | 93% | 1013.4 hPa | 0 mm | - | - | - |
* Rain latest hour (hover to see other rain measurements)
** Current wind speed in m/s (hover to see current wind gust speed)